Starlink 3329

operational
NORAD ID: 50827 Int'l Des: 2022-001 Owner: SPXS Country: US Constellation: starlink
LEOCIRCULAR

About Starlink 3329

Description loading...

Live Position

Loading 3D Globe...

Upcoming Passes

Altitude History

Altitude vs Time

uPlot chart will show altitude changes over time

Two-Line Element Set

1 50827U 22001AA 26062.59759921 .00000452 00000-0 46490-4 0 9998
2 50827 53.2174 196.4712 0001276 89.2495 270.8643 15.08839772229484
Epoch: Mar 3, 2026 • Age: 24 hours

Current Status

Altitude 545.4 km
Velocity 7.60 km/s
Sub-Earth Point 52.92°N, 128.55°E
Launch Date Jan 6, 2022
Age 4.1 years
Type internet

Technical Details

Classification Payload
Mass 297.00 kg
Dry Mass 275.00 kg
Total Mass 297.00 kg
Length 0.20 m
Diameter 2.80 m
Span 9.00 m
Shape Box + pan
Manufacturer SPXS
Bus Type Starlink
Phase Status In Orbit
Owner/State SPXS/US

Large Constellations

Loading constellations...